This is the latest recevied weather packets stored in our database for station/object AE5HO. If no packets are shown the sender has not sent any weather packets the latest 10 day(s).
| Time | Temp. | Humidity | Pressure | Rain* | Wind** | Luminosity | Snow |
|---|---|---|---|---|---|---|---|
| 1787531949 | 39.44° C | 34% | 1011.7 hPa | 0 mm | - | 9 W/m² | - |
| 1787531646 | 40° C | 33% | 1011.7 hPa | 0 mm | - | 12 W/m² | - |
| 1787531341 | 40° C | 33% | 1011.6 hPa | 0 mm | - | 23 W/m² | - |
| 1787531036 | 40.56° C | 32% | 1011.8 hPa | 0 mm | - | 27 W/m² | - |
| 1787530731 | 40.56° C | 32% | 1011.7 hPa | 0 mm | - | 34 W/m² | - |
| 1787530427 | 41.11° C | 32% | 1011.7 hPa | 0 mm | - | 45 W/m² | - |
| 1787530122 | 41.11° C | 31% | 1011.5 hPa | 0 mm | - | 35 W/m² | - |
| 1787529818 | 40.56° C | 32% | 1011.6 hPa | 0 mm | - | 51 W/m² | - |
| 1787529512 | 41.11° C | 31% | 1011.6 hPa | 0 mm | - | 45 W/m² | - |
| 1787529212 | 41.11° C | 31% | 1011.7 hPa | 0 mm | - | 40 W/m² | - |
| 1787528907 | 41.11° C | 31% | 1011.7 hPa | 0 mm | - | 31 W/m² | - |
| 1787528604 | 41.11° C | 31% | 1011.7 hPa | 0 mm | - | 65 W/m² | - |
| 1787528304 | 41.11° C | 31% | 1011.9 hPa | 0 mm | - | 32 W/m² | - |
| 1787528001 | 41.67° C | 31% | 1011.6 hPa | 0 mm | - | 33 W/m² | - |
| 1787527696 | 41.11° C | 31% | 1011.8 hPa | 0 mm | - | 106 W/m² | - |
| 1787527392 | 41.11° C | 31% | 1011.8 hPa | 0 mm | - | 78 W/m² | - |
| 1787527087 | 41.67° C | 31% | 1011.9 hPa | 0 mm | - | 35 W/m² | - |
| 1787526783 | 41.67° C | 31% | 1011.9 hPa | 0 mm | - | 34 W/m² | - |
| 1787526479 | 41.67° C | 31% | 1011.8 hPa | 0 mm | - | 53 W/m² | - |
| 1787526175 | 42.22° C | 30% | 1011.7 hPa | 0 mm | - | 35 W/m² | - |
| 1787525871 | 42.78° C | 30% | 1011.9 hPa | 0 mm | - | 35 W/m² | - |
| 1787525566 | 42.22° C | 31% | 1011.8 hPa | 0 mm | - | 38 W/m² | - |
| 1787525260 | 42.22° C | 30% | 1012 hPa | 0 mm | - | 42 W/m² | - |
| 1787524958 | 41.67° C | 30% | 1012.1 hPa | 0 mm | - | 35 W/m² | - |
| 1787524657 | 41.67° C | 29% | 1012.1 hPa | 0 mm | - | 31 W/m² | - |
* Rain latest hour (hover to see other rain measurements)
** Current wind speed in m/s (hover to see current wind gust speed)